Regional Weather Roundup
Issued by NWS Upton, NY

Current Version | Previous Version | Text Only | Print | Product List | Glossary On
Versions: 1 2 3 4 5 6 7 8 9 10 11 12 13 14 15 16 17 18 19 20 21 22 23 24 25 26 27 28 29 30 31 32 33 34 35 36 37 38 39 40 41 42 43 44 45 46 47 48 49 50
644
ASUS41 KOKX 222108
RWROKX

REGIONAL WEATHER ROUNDUP
NATIONAL WEATHER SERVICE NEW YORK NY
400 PM EST WED NOV 22 2017

NOTE: "FAIR" INDICATES FEW OR NO CLOUDS BELOW 12,000 FEET WITH NO
SIGNIFICANT WEATHER AND/OR OBSTRUCTIONS TO VISIBILITY.

NYZ071-072-176-178-NJZ106-104-222200-
NEW YORK CITY METRO AREA

CITY           SKY/WX    TMP DP  RH WIND       PRES   REMARKS
Central Park   PTCLDY    47  30  51 NW9G25    29.97R
Bronx Bot Gard   N/A     46  30  53 NW8       29.93R
Bronx Lehman C   N/A     48  32  53 NW14        N/A
LaGuardia APRT MOCLDY    49  32  52 NW21      29.94R
Queens College   N/A     48  32  53 NW18        N/A
Kennedy INTL   PTCLDY    49  33  54 NW25      29.94R
Breezy Point   NOT AVBL
Brooklyn Coll    N/A     50  32  50 NW17        N/A
Staten Island  NOT AVBL
Newark/Liberty PTCLDY    46  30  53 NW22G32   29.97R
Teterboro      CLEAR     46  30  53 NW15G29   29.95R
$$

NYZ177-179-078>081-222200-
LONG ISLAND NEW YORK

CITY           SKY/WX    TMP DP  RH WIND       PRES   REMARKS
Jones Beach    NOT AVBL
Wantagh          N/A     48  32  53 NW14        N/A
Matinecock PT  NOT AVBL
Farmingdale    MOCLDY    47  36  65 N12G23    29.91R
MacArthur/ISP  CLOUDY    47  35  63 NW20G28   29.89R
Shirley        CLOUDY    46  39  76 NW17      29.89R
Mt Sinai Harb  NOT AVBL
Westhampton    CLOUDY    47  40  76 NW18G26   29.87R
East Hampton   CLOUDY    47  43  87 NW13G21   29.83R
Southold         N/A     48  32  53 NW20        N/A
Montauk          N/A     50  46  86 NW18G28   29.82R
$$

NYZ052-065-067-222200-
HUDSON VALLEY

CITY           SKY/WX    TMP DP  RH WIND       PRES   REMARKS
White Plains   MOCLDY    45  34  65 NW17      29.92R
Larchmont Harb NOT AVBL
Croton On Huds NOT AVBL
Somers           N/A     43  32  65 NW6         N/A
Brewster         N/A     41  32  70 NW9G24      N/A
Newburgh       MOCLDY    41  30  65 NW16      29.97R
Montgomery     CLOUDY    42  28  57 NW12G20   29.97R
Suffern        NOT AVBL
Poughkeepsie   CLOUDY    44  27  51 NW16G28   29.95R
Albany         PTCLDY    39  28  64 W14       29.99R WCI  31
$$

NJZ001-105-106-008-010-013-015-019>022-104-222200-
NEW JERSEY

CITY           SKY/WX    TMP DP  RH WIND       PRES   REMARKS
Newark/Liberty PTCLDY    46  30  53 NW22G32   29.97R
Teterboro      CLEAR     46  30  53 NW15G29   29.95R
Caldwell       LGT RAIN  44  31  60 NW13G21   29.99R
Somerville     CLOUDY    45  30  55 NW14G23   29.98R
Linden         CLOUDY    46  30  54 N20G25    29.97R
Perth Amboy    NOT AVBL
Sussex         CLOUDY    41  27  57 NW7       30.00R
Andover          N/A     40  26  57 NW9G23    30.00R WCI  34
Trenton        CLOUDY    46  30  53 N16G24    29.98R
Millville      MOCLDY    50  36  58 NW18G30   29.97R
Atlantic City  PTCLDY    50  36  58 NW22      29.95R
Wrightstown    CLOUDY    47  34  59 NW12G21   29.94R
Toms River     CLEAR     47  33  58 NW20G26   29.95R
Belmar         CLEAR     47  33  58 NW22G30   29.95R
$$

PAZ047>061-062-071-222200-
EASTERN PENNSYLVANIA

CITY           SKY/WX    TMP DP  RH WIND       PRES   REMARKS
Philadelphia   MOCLDY    48  30  49 N17G25    30.01R
Allentown      CLOUDY    43  26  51 N14G23    30.02R
Scranton       CLOUDY    37  25  61 NW12      30.05R WCI  29
$$

CTZ002-004>006-009-010-012-RIZ004-006-007-MAZ004-011-015-222200-
SOUTHERN NEW ENGLAND
 IN CT

CITY           SKY/WX    TMP DP  RH WIND       PRES   REMARKS
Bradley INTL   MOCLDY    43  36  76 NW14G20   29.89R
Hartford       CLOUDY    44  35  70 N16G24    29.90R
Danbury        PTCLDY    44  32  62 NW9G20    29.93R
Wtrbury/Oxford MOCLDY    41  30  65 NW21G26   29.89R
Norwalk Harbor NOT AVBL
Bridgeport     MOCLDY    46  33  60 NW14G22   29.90R
Meriden        CLOUDY    44  32  62 NW17G25   29.89R
New Haven      PTCLDY    45  33  63 NW13G24   29.89R
Chester        CLOUDY    45  39  81 NW15G22   29.86R
Groton         CLOUDY    48  42  80 NW18G25   29.82R
Wilimantic     CLOUDY    46  40  79 NW10      29.86R

 IN RI

CITY           SKY/WX    TMP DP  RH WIND       PRES   REMARKS
Providence     LGT RAIN  48  47  96 N9        29.81S
Block Island   LGT RAIN  48  46  93 NW14G23   29.80R
Westerly       CLOUDY    49  47  93 VRB7G17   29.81R
 IN MA

CITY           SKY/WX    TMP DP  RH WIND       PRES   REMARKS
Boston         LGT RAIN  47  43  86 NW15      29.80S
Worcester      CLOUDY    41  38  89 NW10      29.82R
Westfield      CLOUDY    43  37  79 NW15      29.89R
Provincetown   CLOUDY    51  50  96 E7        29.74F
Nantucket      LGT RAIN  53  53 100 N6        29.71F
$$

ANZ330-335-338-340-345-350-353-355-222200-
COASTAL MARINE OBSERVATIONS


STATION/POSITION TIME  SKY/WX   TEMP    WIND        PRES    VSBY  WAVE
                                AIR SEA DIR/SP/G                  HT/PER
                 (UTC)          (F)     (DEG/KT/KT) (MB)    (MI)  (FT/S)
NY HARB ENTRANCE 1950            53 57  310/ 23/ 27 1010.8          3/ 4
20 S FIRE ISLAND 1950            53 57  320/ 21/ 25 1010.3          4/ 4
GREAT SOUTH BAY  2030            47 46  320/ 16/ 21   N/A
HUDSON CANYON    1950            55 59  330/ 23/ 27 1008.7          4/ 7
KINGS POINT      2042            49 51   10/ 18/ 23 1014.1
EXECUTION ROCKS  2030            49     340/ 14/ 17   N/A
WESTERN LI SOUND 1949            48     340/ 19/ 27   N/A           1/ 3
CENTRAL LI SOUND NOT AVBL
ROBBINS REEF     2048            47     310/ 22/ 28 1014.5
$$


>>>>>>>>>>>>>>>>>>>>>>>>>>>> KEY <<<<<<<<<<<<<<<<<<<<<<<<<<<
>                                                          <
>     SKY/WX - Sky Condition/Present Weather               <
>     TMP    - Temperature in Fahrenheit                   <
>     DP     - Dew Point in Fahrenheit                     <
>     RH     - Relative Humidity in Percent                <
>     WIND   - Direction (from) and Speed in MPH           <
>     PRES   - Mean Sea Level Pressure (inches of Hg)      <
>     WCI    - Wind Chill Index                            <
>     VSB    - VISIBILITY IN MILES                         <
>     HX     - HEAT INDEX                                  <
>     TC     - TEMPERATURE IN CELSIUS                      <
>     VRB    - VARIABLE WIND DIRECTION                     <
>                                                          <
>>>>>>>>>>>>>>>>>>>>>>>>>>>> KEY <<<<<<<<<<<<<<<<<<<<<<<<<<<




USA.gov is the U.S. government's official web portal to all federal, state and local government web resources and services.